CW0641 Weather Reports


Display with metric or nautical units.
time (UTC)temp
F
wind
direction
speed
MPH
gust
MPH
rain 1hr
in
rain 24hr
in
rain mn
in
humidity
%
barometer
mb
20260905225726 69 350 2.0 8.0 0.00 0.00 0.00 93 1013.2
20260905225225 69 0 3.0 8.0 0.00 0.00 0.00 93 1013.2
20260905224726 69 327 3.0 8.0 0.00 0.00 0.00 93 1013.2
20260905223727 69 355 3.0 8.0 0.00 0.00 0.00 93 1013.3
20260905223217 69 333 3.0 6.0 0.00 0.00 0.00 92 1013.3
20260905222717 69 350 3.0 6.0 0.00 0.00 0.00 92 1013.4
20260905222209 69 315 2.0 5.0 0.00 0.00 0.00 92 1013.4
20260905221710 69 325 2.0 5.0 0.00 0.00 0.00 92 1013.4
20260905220209 69 340 2.0 5.0 0.00 0.00 0.00 92 1013.7
20260905215707 69 342 2.0 6.0 0.00 0.00 0.00 92 1013.7
20260905215207 69 335 2.0 6.0 0.00 0.00 0.00 92 1013.7
20260905214706 69 313 3.0 7.0 0.00 0.00 0.00 92 1013.7
20260905214158 69 302 3.0 8.0 0.00 0.00 0.00 92 1013.8
20260905213658 69 325 3.0 8.0 0.00 0.00 0.00 92 1013.8
20260905213200 69 296 3.0 8.0 0.00 0.00 0.00 92 1013.9
20260905212658 70 338 2.0 6.0 0.00 0.00 0.00 92 1013.9
20260905212158 70 320 2.0 6.0 0.00 0.00 0.00 92 1013.9
20260905211701 70 292 3.0 6.0 0.00 0.00 0.00 92 1013.9
20260905211159 70 321 2.0 5.0 0.00 0.00 0.00 91 1013.9
20260905210657 70 321 2.0 6.0 0.00 0.00 0.00 91 1014.0
20260905210157 70 330 2.0 6.0 0.00 0.00 0.00 91 1014.0
20260905205157 70 13 2.0 7.0 0.00 0.00 0.00 91 1014.2
20260905204700 70 308 2.0 7.0 0.00 0.00 0.00 91 1014.2
20260905204159 70 306 2.0 5.0 0.00 0.00 0.00 91 1014.2
20260905203658 70 312 2.0 5.0 0.00 0.00 0.00 91 1014.3
20260905203201 70 310 2.0 4.0 0.00 0.00 0.00 91 1014.3
20260905202157 70 260 1.0 4.0 0.00 0.00 0.00 91 1014.4
20260905201656 70 273 2.0 7.0 0.00 0.00 0.00 91 1014.3
20260905201154 70 284 2.0 7.0 0.00 0.00 0.00 90 1014.4
20260905200656 70 306 3.0 8.0 0.00 0.00 0.00 90 1014.4
20260905200154 71 311 2.0 8.0 0.00 0.00 0.00 90 1014.4
20260905195656 71 306 2.0 7.0 0.00 0.00 0.00 90 1014.3
20260905195154 71 267 2.0 7.0 0.00 0.00 0.00 90 1014.3
20260905194653 71 290 3.0 11.0 0.00 0.00 0.00 90 1014.4
20260905194152 71 325 3.0 11.0 0.00 0.00 0.00 90 1014.4
20260905192648 71 307 2.0 9.0 0.00 0.00 0.00 89 1014.5
20260905192145 71 285 2.0 9.0 0.00 0.00 0.00 89 1014.5
20260905191640 71 296 2.0 8.0 0.00 0.00 0.00 89 1014.6
20260905190139 71 312 3.0 8.0 0.00 0.00 0.00 88 1014.5
20260905185637 72 280 3.0 8.0 0.00 0.00 0.00 88 1014.5
20260905184638 72 333 3.0 9.0 0.00 0.00 0.00 88 1014.6
20260905184133 72 335 2.0 8.0 0.00 0.00 0.00 88 1014.6
20260905183634 72 325 3.0 9.0 0.00 0.00 0.00 88 1014.7
20260905182624 72 285 3.0 8.0 0.00 0.00 0.00 88 1014.7
20260905182123 72 281 3.0 8.0 0.00 0.00 0.00 88 1014.8
20260905181623 72 319 3.0 8.0 0.00 0.00 0.00 87 1014.8
20260905181123 72 335 3.0 8.0 0.00 0.00 0.00 87 1014.7
20260905180621 72 283 3.0 10.0 0.00 0.00 0.00 87 1014.8
20260905175620 72 331 3.0 9.0 0.00 0.00 0.00 87 1014.8
20260905175121 73 336 3.0 8.0 0.00 0.00 0.00 87 1014.7
20260905174621 73 294 3.0 8.0 0.00 0.00 0.00 86 1014.7
20260905174124 73 249 2.0 8.0 0.00 0.00 0.00 86 1014.6
20260905173620 73 324 3.0 9.0 0.00 0.00 0.00 86 1014.7
20260905173122 73 314 4.0 10.0 0.00 0.00 0.00 85 1014.6
20260905172620 73 342 4.0 11.0 0.00 0.00 0.00 85 1014.4
20260905172120 73 292 4.0 11.0 0.00 0.00 0.00 85 1014.4
20260905171619 74 299 4.0 11.0 0.00 0.00 0.00 84 1014.4
20260905171114 74 340 4.0 10.0 0.00 0.00 0.00 84 1014.4
20260905170611 74 284 4.0 10.0 0.00 0.00 0.00 83 1014.3
20260905170110 74 278 3.0 9.0 0.00 0.00 0.00 83 1014.2
20260905165609 74 288 3.0 8.0 0.00 0.00 0.00 83 1014.2
20260905165115 74 286 3.0 8.0 0.00 0.00 0.00 82 1013.9
20260905164111 74 331 3.0 10.0 0.00 0.00 0.00 81 1013.8
20260905163609 74 319 4.0 10.0 0.00 0.00 0.00 80 1013.7
20260905163103 75 309 4.0 10.0 0.00 0.00 0.00 80 1013.7
20260905162601 75 336 4.0 11.0 0.00 0.00 0.00 79 1013.5
20260905162103 75 310 5.0 13.0 0.00 0.00 0.00 78 1013.6
20260905161101 75 300 5.0 12.0 0.00 0.00 0.00 77 1013.5
20260905160557 76 300 5.0 11.0 0.00 0.00 0.00 76 1013.5
20260905160059 76 286 5.0 13.0 0.00 0.00 0.00 75 1013.6
20260905155556 76 325 6.0 13.0 0.00 0.00 0.00 74 1013.4
20260905155057 76 287 5.0 11.0 0.00 0.00 0.00 73 1013.4
20260905154059 77 294 4.0 10.0 0.00 0.00 0.00 71 1013.5
20260905153558 78 290 4.0 9.0 0.00 0.00 0.00 70 1013.4
20260905153056 78 304 4.0 10.0 0.00 0.00 0.00 69 1013.5
20260905152559 78 312 4.0 10.0 0.00 0.00 0.00 68 1013.4
20260905152055 79 323 5.0 15.0 0.00 0.00 0.00 67 1013.4
20260905151556 79 304 4.0 15.0 0.00 0.00 0.00 66 1013.4
20260905151054 79 283 4.0 9.0 0.00 0.00 0.00 65 1013.4
20260905150558 79 298 3.0 10.0 0.00 0.00 0.00 64 1013.3
20260905150050 80 328 4.0 10.0 0.00 0.00 0.00 64 1013.4
20260905145553 80 309 4.0 10.0 0.00 0.00 0.00 63 1013.4
20260905145051 80 333 3.0 9.0 0.00 0.00 0.00 63 1013.4
20260905144552 80 294 3.0 9.0 0.00 0.00 0.00 63 1013.3
20260905144046 80 344 3.0 9.0 0.00 0.00 0.00 63 1013.3
20260905143543 80 290 3.0 8.0 0.00 0.00 0.00 62 1013.3
20260905142542 81 289 3.0 12.0 0.00 0.00 0.00 62 1013.2
20260905142039 81 331 4.0 12.0 0.00 0.00 0.00 61 1013.2
20260905141539 81 269 4.0 10.0 0.00 0.00 0.00 61 1013.1
20260905140537 81 336 4.0 12.0 0.00 0.00 0.00 61 1013.1
20260905140040 81 270 4.0 12.0 0.00 0.00 0.00 60 1013.1
20260905135541 82 285 4.0 9.0 0.00 0.00 0.00 60 1013.1
20260905135039 82 311 4.0 10.0 0.00 0.00 0.00 59 1013.0
20260905133530 82 297 4.0 11.0 0.00 0.00 0.00 59 1013.0
20260905133028 82 283 4.0 11.0 0.00 0.00 0.00 59 1012.9
20260905132028 82 294 4.0 12.0 0.00 0.00 0.00 56 1013.1
20260905131532 82 320 3.0 10.0 0.00 0.00 0.00 56 1013.1
20260905131024 82 283 4.0 10.0 0.00 0.00 0.00 56 1012.9
20260905130524 83 262 5.0 10.0 0.00 0.00 0.00 56 1013.0
20260905130020 83 322 5.0 10.0 0.00 0.00 0.00 56 1013.0
20260905125518 83 330 5.0 15.0 0.00 0.00 0.00 55 1013.0
20260905125013 83 283 5.0 15.0 0.00 0.00 0.00 55 1013.0
20260905124014 83 326 5.0 13.0 0.00 0.00 0.00 55 1013.1
20260905123014 83 285 4.0 11.0 0.00 0.00 0.00 53 1013.1
20260905122515 83 286 4.0 11.0 0.00 0.00 0.00 54 1013.1
20260905121510 84 270 5.0 14.0 0.00 0.00 0.00 54 1013.1
20260905121006 84 303 4.0 14.0 0.00 0.00 0.00 54 1013.1
20260905120508 84 350 5.0 13.0 0.00 0.00 0.00 53 1013.2
20260905120008 84 296 5.0 13.0 0.00 0.00 0.00 54 1013.2
20260905115007 84 298 4.0 13.0 0.00 0.00 0.00 52 1013.1
20260905114002 84 27 3.0 11.0 0.00 0.00 0.00 50 1013.2
20260905113504 84 284 3.0 11.0 0.00 0.00 0.00 47 1013.3
20260905113005 85 285 4.0 11.0 0.00 0.00 0.00 50 1013.2
20260905111505 85 290 4.0 11.0 0.00 0.00 0.00 49 1013.3
20260905111003 85 341 5.0 11.0 0.00 0.00 0.00 46 1013.3
20260905110503 85 343 4.0 11.0 0.00 0.00 0.00 47 1013.4
20260905110005 85 29 4.0 11.0 0.00 0.00 0.00 46 1013.4
20260905105502 85 284 4.0 11.0 0.00 0.00 0.00 42 1013.4
20260905105003 85 28 4.0 10.0 0.00 0.00 0.00 44 1013.4
20260905103959 85 285 2.0 15.0 0.00 0.00 0.00 42 1013.5
20260905103500 85 269 3.0 8.0 0.00 0.00 0.00 41 1013.4
20260905102957 85 289 4.0 10.0 0.00 0.00 0.00 42 1013.5
20260905102459 85 320 3.0 10.0 0.00 0.00 0.00 42 1013.6
20260905102000 85 316 3.0 9.0 0.00 0.00 0.00 44 1013.5
20260905101458 85 313 4.0 9.0 0.00 0.00 0.00 41 1013.5
20260905100958 85 286 2.0 8.0 0.00 0.00 0.00 41 1013.6
20260905100458 85 40 2.0 9.0 0.00 0.00 0.00 43 1013.4
20260905095959 84 298 3.0 11.0 0.00 0.00 0.00 43 1013.5
20260905095457 85 242 3.0 11.0 0.00 0.00 0.00 44 1013.6
20260905094953 85 318 3.0 12.0 0.00 0.00 0.00 43 1013.5
20260905094454 85 344 4.0 12.0 0.00 0.00 0.00 41 1013.6
20260905093955 85 269 3.0 11.0 0.00 0.00 0.00 42 1013.6
20260905093452 85 253 2.0 8.0 0.00 0.00 0.00 44 1013.6
20260905092951 84 319 3.0 8.0 0.00 0.00 0.00 41 1013.6
20260905092455 84 308 2.0 9.0 0.00 0.00 0.00 38 1013.7
20260905091952 84 294 2.0 9.0 0.00 0.00 0.00 43 1013.6
20260905090451 83 5 2.0 9.0 0.00 0.00 0.00 47 1013.6
20260905085951 83 324 2.0 9.0 0.00 0.00 0.00 48 1013.7
20260905085453 83 346 2.0 9.0 0.00 0.00 0.00 49 1013.7
20260905084950 83 0 2.0 9.0 0.00 0.00 0.00 48 1013.7
20260905083951 82 234 1.0 5.0 0.00 0.00 0.00 47 1013.6
20260905083447 83 71 2.0 8.0 0.00 0.00 0.00 49 1013.7
20260905082449 83 273 1.0 7.0 0.00 0.00 0.00 48 1013.6
20260905081950 83 5 2.0 8.0 0.00 0.00 0.00 47 1013.6
20260905081446 82 240 2.0 8.0 0.00 0.00 0.00 49 1013.6
20260905080947 82 271 2.0 7.0 0.00 0.00 0.00 50 1013.7
20260905080449 82 268 2.0 7.0 0.00 0.00 0.00 49 1013.7
20260905075947 82 290 2.0 9.0 0.00 0.00 0.00 50 1013.6
20260905074946 82 329 1.0 7.0 0.00 0.00 0.00 51 1013.6
20260905074448 81 248 2.0 8.0 0.00 0.00 0.00 51 1013.6
20260905073943 81 338 3.0 8.0 0.00 0.00 0.00 53 1013.6
20260905073444 81 288 2.0 7.0 0.00 0.00 0.00 54 1013.6
20260905072942 80 290 1.0 5.0 0.00 0.00 0.00 54 1013.7
20260905072442 80 331 1.0 5.0 0.00 0.00 0.00 54 1013.6
20260905071942 80 229 1.0 5.0 0.00 0.00 0.00 55 1013.6
20260905071442 79 297 1.0 6.0 0.00 0.00 0.00 56 1013.7
20260905070929 78 289 1.0 6.0 0.00 0.00 0.00 57 1013.7
20260905070429 78 298 2.0 7.0 0.00 0.00 0.00 58 1013.7
20260905065930 78 238 2.0 7.0 0.00 0.00 0.00 60 1013.7
20260905065428 77 257 2.0 7.0 0.00 0.00 0.00 61 1013.6
20260905064929 77 251 1.0 6.0 0.00 0.00 0.00 63 1013.7
20260905064425 76 318 1.0 4.0 0.00 0.00 0.00 66 1013.6
20260905063925 76 355 1.0 4.0 0.00 0.00 0.00 70 1013.6
20260905062926 74 355 1.0 4.0 0.00 0.00 0.00 73 1013.5
20260905062425 73 341 1.0 4.0 0.00 0.00 0.00 76 1013.5
20260905061924 73 333 0.0 3.0 0.00 0.00 0.00 78 1013.4
20260905061425 73 334 0.0 2.0 0.00 0.00 0.00 80 1013.5
20260905060926 73 334 0.0 3.0 0.00 0.00 0.00 81 1013.4
20260905060422 72 313 0.0 3.0 0.00 0.00 0.00 83 1013.4
20260905055916 71 313 1.0 6.0 0.00 0.00 0.00 84 1013.4
20260905054910 71 310 1.0 5.0 0.00 0.00 0.00 87 1013.3
20260905054411 71 332 1.0 5.0 0.00 0.00 0.00 88 1013.3
20260905053909 71 335 1.0 5.0 0.00 0.00 0.00 89 1013.2
20260905052912 70 5 1.0 4.0 0.00 0.00 0.00 90 1013.2
20260905051908 70 302 1.0 5.0 0.00 0.00 0.00 91 1013.2
20260905051408 70 329 1.0 5.0 0.00 0.00 0.00 91 1013.2
20260905045909 69 355 0.0 4.0 0.00 0.00 0.00 91 1013.1
20260905044907 69 320 0.0 4.0 0.00 0.00 0.00 91 1013.1
20260905044406 69 338 1.0 4.0 0.00 0.00 0.00 91 1013.1
20260905043901 69 327 2.0 7.0 0.00 0.00 0.00 91 1013.1
20260905042850 68 341 1.0 5.0 0.00 0.00 0.00 91 1013.0
20260905042348 68 321 2.0 6.0 0.00 0.00 0.00 91 1013.0
20260905041845 68 337 3.0 8.0 0.00 0.00 0.00 91 1013.0
20260905041346 68 297 2.0 8.0 0.00 0.00 0.00 91 1013.0
20260905040338 68 337 3.0 9.0 0.00 0.00 0.00 90 1013.1
20260905035839 68 311 2.0 9.0 0.00 0.00 0.00 90 1013.0
20260905035338 68 313 2.0 7.0 0.00 0.00 0.00 90 1013.0
20260905034337 67 348 3.0 10.0 0.00 0.00 0.00 90 1013.0
20260905033835 67 348 2.0 8.0 0.00 0.00 0.00 90 1012.9
20260905033337 67 315 3.0 6.0 0.00 0.00 0.00 90 1012.8
20260905032330 67 0 3.0 6.0 0.00 0.00 0.00 90 1012.6
20260905031833 67 355 2.0 5.0 0.00 0.00 0.00 89 1012.6
20260905031331 67 344 1.0 3.0 0.00 0.00 0.00 90 1012.6
20260905030827 67 344 0.0 3.0 0.00 0.00 0.00 89 1012.5
20260905030327 67 344 0.0 2.0 0.00 0.00 0.00 89 1012.4
20260905025826 67 344 0.0 2.0 0.00 0.00 0.00 89 1012.3
20260905025330 67 344 0.0 2.0 0.00 0.00 0.00 89 1012.3
20260905024827 67 344 0.0 3.0 0.00 0.00 0.00 89 1012.2
20260905024327 67 344 1.0 3.0 0.00 0.00 0.00 89 1012.3
20260905022826 67 331 0.0 3.0 0.00 0.00 0.00 89 1012.2
20260905022321 67 331 0.0 3.0 0.00 0.00 0.00 89 1012.1
20260905021827 67 331 0.0 3.0 0.00 0.00 0.00 88 1012.1
20260905021315 67 331 0.0 3.0 0.00 0.00 0.00 88 1012.1
20260905020315 67 335 0.0 2.0 0.00 0.00 0.00 88 1012.0
20260905015816 67 335 0.0 2.0 0.00 0.00 0.00 88 1012.0
20260905015257 67 336 0.0 2.0 0.00 0.00 0.00 88 1012.0
20260905014814 67 336 0.0 2.0 0.00 0.00 0.00 88 1012.0
20260905014257 67 336 0.0 2.0 0.00 0.00 0.00 88 1012.0
20260905013815 68 337 1.0 3.0 0.00 0.00 0.00 88 1012.0
20260905013258 68 337 1.0 4.0 0.00 0.00 0.00 88 1012.0
20260905012811 68 341 2.0 4.0 0.00 0.00 0.00 88 1012.0
20260905012252 68 347 2.0 5.0 0.00 0.00 0.00 88 1012.0
20260905011235 68 344 2.0 5.0 0.00 0.00 0.00 87 1012.0
20260905010806 69 5 2.0 5.0 0.00 0.00 0.00 87 1012.0
20260905010228 69 5 3.0 5.0 0.00 0.00 0.00 87 1012.1
20260905005805 69 338 2.0 5.0 0.00 0.00 0.00 87 1012.0
20260905005230 69 355 2.0 5.0 0.00 0.00 0.00 87 1012.0
20260905004804 69 350 2.0 4.0 0.00 0.00 0.00 86 1012.0
20260905004228 69 343 2.0 5.0 0.00 0.00 0.00 86 1012.1
20260905003803 69 348 2.0 5.0 0.00 0.00 0.00 86 1012.1
20260905003227 69 348 2.0 5.0 0.00 0.00 0.00 85 1012.1
20260905001226 70 355 2.0 4.0 0.00 0.00 0.00 84 1012.2
20260905000754 70 350 1.0 4.0 0.00 0.00 0.00 83 1012.1
20260904235756 70 350 1.0 4.0 0.00 0.00 0.00 82 1012.1
20260904235221 70 345 1.0 4.0 0.00 0.00 0.00 81 1012.1
20260904234753 70 336 2.0 6.0 0.00 0.00 0.00 81 1012.1
20260904234221 70 350 2.0 6.0 0.00 0.00 0.00 80 1012.1
20260904233750 70 342 1.0 4.0 0.00 0.00 0.00 79 1012.1
20260904233218 70 315 1.0 4.0 0.00 0.00 0.00 78 1012.2
20260904232750 70 291 1.0 3.0 0.00 0.00 0.00 78 1012.2
20260904232219 70 298 1.0 3.0 0.00 0.00 0.00 77 1012.1
20260904231750 70 320 1.0 3.0 0.00 0.00 0.00 76 1012.2
20260904231217 71 350 0.0 3.0 0.00 0.00 0.00 75 1012.1